CamptonHillsWeather.com

Find the Weather for any City, State  
or Zipcode, or Country:

Campton Hills, IL Weather
Local Radar

Local Radar

Graphs, Details
Graphs and Gauges
Detailed Weather
Detailed Reports
Ajax Version (old)
Central Kane Co Summary
Davis Current Weather Graphs
Davis 24 Hour Weather History

CW3778 Data

Weather Underground
Maps
Temperature
Heat Index
Windchill
Humidity
Radar
Dew Point
Wind
Visibility
Visible Satellite
Satellite
Fronts
Snow Depth
Jet Stream
Flight Rules
Forecast Maps
Temperature Forecast
Maximum Temperature Forecast
Minimum Temperature Forecast
Dewpoint Forecast
Prevalent Weather
12Hr Probability of Precip.
Sky Cover
Health Maps
UV Forecast
Air Quality
Peak Air Quality Index
Weather Station
Davis Instruments Vantage Pro
Current Conditions [Select Refresh to Update]

Updated: 6:27am on 7/29/15

(location)
Currently:
72.4F

Clear
Scattered Clouds

High: 76.2 F< 
(12:46am
Low: 72.4 F 
(6:04am)
Wind: NW 0 mph
Calm
Gust: 2 mph
Today's High Wind: 4 mph (12:56am)
Humidity: 94%
Pressure: 29.91 in  (Steady
Pressure Rate: 0.005 in/hr
Dew Point: 70.6F
Wind Chill: 72.4 F
Heat Index (feels like): 78.6 F
Comfort Level: Comfortable
Temperature Rate:  -0.29F/hr
 
5 Day Forecast
 
Wed Thu Fri Sat Sun
Clear Clear Clear Clear Clear
Chance T-storms Clear Partly Cloudy Partly Cloudy Chance T-storms
86 88 89 84 85
62 63 62 64 64

Records and Normals
 
Temperature Forecast Normal Record
High 86 84 95
(1999)
Low 62 63 52
(1997)
 
Links
 
 
Weather Advisories
No Advisories
Full Advisory Text...
Weather Map

Web Cam

Almanac
 
Sunrise:  
5:46am
Moonrise: 
6:42pm

Moon Phase:
92%

Sunset: 
8:17pm
Moonset:  
3:51am
 Star Chart...
Rainfall Totals
Hourly Rain 0.00 in
Daily Rain: 0.00 in
Monthly Rain: 4.26 in
Yearly Rain: 24.93 in
Normal Rain, month to date: 3.26 in
Normal Rain, year to date: 22.26 in
Link to Village of Campton Hills Map

Link to Counties of Illinois Map

Local Weather Exchange Network
Station ID City 
(Click for Map Location)
Neighborhood 
(Click for History)
Last Update (Date & Time) Temperature
 ()
Dew
Point ()
Humidity 
(%)
Wind 
(mph)
from the Wind Gust 
(mph) 
Pressure(in) Hourly
Rain(in)
KILSAINT10 Saint Charles Saint Charles Burr Road 07/29 06:12:30 72.7 70.0 92 2 West 0 29.63 0.00
MD5528 Wasco APRSWXNET 07/29 05:47:00 72.0 68.0 87 0 South 0 29.88 0.00
KILSTCHA10 St. Charles Hunt Club 07/29 06:19:26 73.2 58.0 58 0 WSW 0 29.49 0.00
KILSAINT8 Saint Charles St. Charles Near West Side 07/29 06:18:39 72.0 71.0 97 2 West 0 29.71 0.00
KILWAYNE4 Wayne Hampton Course 07/29 06:15:36 75.0 72.0 90 0 North 0 30.04 0.00
KILSAINT7 Saint Charles Silver Glen 07/29 06:20:05 72.9 71.0 93 3 SW 5 29.56 0.00
KILSAINT6 Saint Charles 3 Lakes 07/29 06:17:34 73.0 68.0 85 0 NNW 0 29.68 0.00
KILSAINT9 Saint Charles Fox Chase 07/29 06:20:00 73.6 72.0 95 0 West 0 29.94 0.00
KILGENEV6 Geneva Dover Ridge 07/29 06:19:55 72.1 71.0 96 4 SW 4 29.89 0.00
MUR354 Geneva MesoWest 07/29 05:25:00 66.0 0.0 0 3 SW 5 0.00 0.00
KILSTCHA8 St. Charles Ronzheimer Ave. & S. Tyler Rd. 07/29 06:20:14 72.8 71.0 94 2 West 3 29.88 0.00
KILGENEV9 Geneva Saint Andrews Circle 07/29 06:15:45 72.1 72.0 98 0 North 0 30.02 0.00
KILGENEV3 Geneva Mill Creek (Blackberry Way) 07/29 06:19:56 72.3 71.0 96 0 South 0 29.90 0.00
KILSTCHA1 St Charles CamptonHillsWeather.com Central Kane County 07/29 06:20:08 72.4 71.0 94 0 NW 2 29.91 0.00
KILGENEV7 Geneva Eldorado Drive 07/29 06:15:38 74.8 75.0 100 0 North 0 29.88 0.00
KILGENEV8 Geneva Alexander Drive 07/29 06:15:35 65.7 51.0 58 0 North 0 29.57 0.00
KILSOUTH5 South Elgin Concord Park 07/29 06:05:53 73.4 72.0 95 3 South 0 29.70 0.00
KILGENEV2 Geneva Mill Creek 07/29 06:09:22 71.7 69.0 90 0 WSW 1 29.85 0.00
KILELBUR11 Elburn Cheval de Selle 07/29 06:18:14 71.1 71.0 99 2 ESE 0 29.94 0.00
KILBATAV7 Batavia Charleston Street 07/29 06:15:49 72.9 71.0 93 0 North 0 30.02 0.00
KILBATAV1 Batavia Tri-Cities on the Fox River 07/29 06:19:00 73.3 68.0 83 0 NNE 0 29.92 0.00
KILELGIN16 Elgin Providence Subdivision 07/29 06:15:18 72.5 69.0 88 2 WSW 0 29.68 0.00
KILELBUR10 Elburn Prairie Valley North 07/29 06:19:27 71.1 69.0 94 0 West 3 28.89 0.00
KILBATAV10 Batavia Deerpath Road 07/29 06:15:43 73.8 72.0 93 0 North 0 29.94 0.00
KILELBUR9 Elburn Griffith Avenue 07/29 06:15:32 72.7 72.0 96 0 North 0 29.16 0.00
KILELBUR5 Elburn Prairie Highlands 07/29 06:15:16 71.8 71.0 97 0 North 1 29.90 0.00
KILWESTC12 West Chicago Woodland Avenue 07/29 06:15:55 73.9 70.0 88 0 North 0 30.01 0.00
KILELBUR12 Elburn Seaton Street 07/29 06:15:47 75.6 70.0 82 0 North 0 29.98 0.00
MD7322 Elburn APRSWXNET 07/29 05:55:00 71.0 70.0 98 0 SW 0 29.90 0.00
KILBATAV3 Batavia West Batavia 07/29 06:09:34 71.7 71.0 97 0 WNW 0 29.87 0.00
KILELBUR6 Elburn Columbine Square 07/29 06:10:47 71.1 70.0 97 1 WNW 2 29.86 0.00
KILBATAV5 Batavia Fermi National Accelerator Laboratory 07/29 06:13:11 72.6 71.0 94 4 WSW 5 29.86 0.00
KILELBUR8 Elburn Columbine 07/29 06:05:36 71.1 70.0 96 1 South 2 29.88 0.00
KILWESTC5 West Chicago THEBROWNHOUSE.ORG 07/29 06:20:06 71.5 68.0 87 0 SW 0 29.94 0.00
KILWESTC8 West Chicago Ingalton Hills Estates 07/29 06:20:10 72.0 71.0 97 3 SW 3 30.01 0.00
KILNORTH29 North Aurora County Club Estates 07/29 06:17:35 72.2 71.0 96 0 WSW 0 29.89 0.00
KDPA Chicago DuPage Official Station 07/29 06:09:00 73.0 70.0 90 6 WSW --- 29.95 ---
KARR Aurora Official Station 07/29 05:52:00 73.0 70.0 90 4 WSW --- 29.94 ---
KDKB DeKalb Official Station 07/29 05:55:00 73.0 71.0 95 9 West --- 29.97 ---
KORD Chicago Official Station 07/29 05:51:00 75.0 70.0 84 9 West --- 29.91 ---
Full Advisory Text
No Warnings

Ambient Weather and Weather Underground
 Never base important decisions on this or any weather information obtained from the Internet
Updated Automatically by Ambient Weather's Virtual Weather Station  V13.01